KB4SYV Bradenton FL US current weather conditions

sailwx.info

Wind from 118 at 1 knots gusting 9

Air temperature 18.9° C
Dewpoint 10.4° C

Last reported at 2019-Mar-22 05:09 UTC.
Time now 2019-Mar-22 06:00 UTC

Location: N 27°30' W 082°36'.
View on Google Maps.

See reports from other nearby stations

  
Tides and Currents Weather Stations Pressure Air Temp Water Temp Dewpoint Dewpoint Depression Visibility Wind Speed Wind Dir Waves Ship Positions
date/time (UTC)wind fromknots sea level pressurealtimeterstation pressurevisibilityair tempwater tempwave heightnotes
2019-Mar-22 05:09 118 1 gusting 9 18.9
2019-Mar-22 05:04 125 3 gusting 9 18.9
2019-Mar-22 04:59 121 2 gusting 10 18.9
2019-Mar-22 04:54 128 3 gusting 10 18.9
2019-Mar-22 04:49 140 2 gusting 11 18.9
2019-Mar-22 04:44 124 2 gusting 11 18.9
2019-Mar-22 04:39 125 3 gusting 11 18.9
2019-Mar-22 04:34 121 5 gusting 11 18.9
2019-Mar-22 04:29 138 3 gusting 11 18.9
2019-Mar-22 04:24 138 2 gusting 9 18.9
2019-Mar-22 04:19 129 2 gusting 9 18.9
2019-Mar-22 04:14 112 3 gusting 8 18.9
2019-Mar-22 04:09 112 2 gusting 9 18.9
2019-Mar-22 04:04 118 2 gusting 9 18.9
2019-Mar-22 03:59 129 2 gusting 7 18.9
2019-Mar-22 03:54 104 3 gusting 9 18.9
2019-Mar-22 03:49 111 3 gusting 9 18.9
2019-Mar-22 03:44 100 4 gusting 9 18.9
2019-Mar-22 03:39 126 4 gusting 9 18.9
2019-Mar-22 03:34 109 3 gusting 8 18.9
2019-Mar-22 03:29 092 0 gusting 6 18.9
2019-Mar-22 03:24 121 1 gusting 6 18.9
2019-Mar-22 03:19 094 2 gusting 8 19.4
2019-Mar-22 03:14 096 4 gusting 8 19.4
2019-Mar-22 03:09 118 3 gusting 9 19.4
2019-Mar-22 03:04 112 4 gusting 9 19.4
2019-Mar-22 02:59 109 3 gusting 9 19.4
2019-Mar-22 02:54 114 3 gusting 7 19.4
2019-Mar-22 02:49 103 3 gusting 12 19.4
2019-Mar-22 02:44 123 4 gusting 12 19.4
2019-Mar-22 02:39 103 1 gusting 10 19.4
2019-Mar-22 02:34 111 1 gusting 10 19.4
2019-Mar-22 02:29 101 2 gusting 7 19.4
2019-Mar-22 02:24 092 2 gusting 9 20.0
2019-Mar-22 02:19 116 0 gusting 9 20.0
2019-Mar-22 02:14 094 2 gusting 8 20.0
2019-Mar-22 02:09 095 5 gusting 9 20.0
2019-Mar-22 02:04 096 3 gusting 9 20.0
2019-Mar-22 01:59 093 3 gusting 8 20.0
2019-Mar-22 01:54 111 1 gusting 9 20.0
2019-Mar-22 01:49 095 2 gusting 9 20.0
2019-Mar-22 01:44 111 4 gusting 9 20.0
2019-Mar-22 01:39 119 5 gusting 9 20.0
2019-Mar-22 01:34 101 3 gusting 8 20.0
2019-Mar-22 01:29 105 2 gusting 7 20.0
2019-Mar-22 01:24 102 3 gusting 7 20.6
2019-Mar-22 01:19 099 3 gusting 8 20.0
2019-Mar-22 01:14 122 2 gusting 8 20.0
2019-Mar-22 01:09 116 2 gusting 10 20.0
2019-Mar-22 01:04 102 4 gusting 10 20.0
2019-Mar-22 00:59 109 2 gusting 7 20.6
2019-Mar-22 00:54 103 3 gusting 8 20.6
2019-Mar-22 00:49 097 3 gusting 8 20.0
2019-Mar-22 00:44 102 2 gusting 8 20.0
2019-Mar-22 00:39 103 2 gusting 8 20.0
2019-Mar-22 00:34 094 0 gusting 8 20.6
2019-Mar-22 00:29 112 1 gusting 7 20.6
2019-Mar-22 00:24 101 0 gusting 8 20.6
2019-Mar-22 00:19 098 2 gusting 8 20.6
2019-Mar-22 00:14 100 2 gusting 6 20.6
2019-Mar-22 00:09 096 1 gusting 7 20.6
2019-Mar-22 00:04 087 2 gusting 7 20.6
2019-Mar-21 23:59 099 0 gusting 7 20.6
2019-Mar-21 23:54 103 2 gusting 7 20.6
2019-Mar-21 23:49 103 3 gusting 6 21.1
2019-Mar-21 23:44 090 2 gusting 6 21.1
2019-Mar-21 23:39 102 2 gusting 7 21.1
2019-Mar-21 23:34 088 1 gusting 7 21.1
2019-Mar-21 23:29 104 3 gusting 6 21.1
2019-Mar-21 23:24 114 1 gusting 5 21.1
2019-Mar-21 23:19 073 0 gusting 6 21.1
2019-Mar-21 23:14 105 2 gusting 8 21.7
2019-Mar-21 23:09 105 4 gusting 9 21.7
2019-Mar-21 23:04 104 2 gusting 9 21.7
2019-Mar-21 22:59 102 1 gusting 7 22.2
2019-Mar-21 22:54 103 1 gusting 7 22.2
2019-Mar-21 22:49 114 3 gusting 8 22.2
2019-Mar-21 22:44 112 1 gusting 8 22.2
2019-Mar-21 22:39 096 4 gusting 7 22.2
2019-Mar-21 22:34 118 3 gusting 10 22.8
2019-Mar-21 22:29 115 3 gusting 10 22.8
2019-Mar-21 22:24 106 4 gusting 8 22.8
2019-Mar-21 22:19 120 3 gusting 8 22.8
2019-Mar-21 22:14 121 1 gusting 8 22.8
2019-Mar-21 22:09 125 3 gusting 7 22.8
2019-Mar-21 22:04 131 3 gusting 10 22.8
2019-Mar-21 21:59 115 2 gusting 11 22.8
2019-Mar-21 21:54 132 3 gusting 11 22.8
2019-Mar-21 21:49 107 4 gusting 9 23.3
2019-Mar-21 21:44 119 2 gusting 9 22.8
2019-Mar-21 21:39 158 1 gusting 10 22.8
2019-Mar-21 21:34 103 4 gusting 10 23.3
2019-Mar-21 21:29 112 3 gusting 9 23.3
2019-Mar-21 21:24 111 4 gusting 9 22.8
2019-Mar-21 21:19 121 2 gusting 10 23.3
2019-Mar-21 21:14 129 2 gusting 10 22.8
2019-Mar-21 21:09 138 3 gusting 9 22.8
2019-Mar-21 21:04 148 4 gusting 9 23.3
2019-Mar-21 20:59 137 5 gusting 10 23.3
2019-Mar-21 20:54 140 4 gusting 10 23.3
2019-Mar-21 20:49 112 3 gusting 8 23.3
2019-Mar-21 20:44 127 3 gusting 10 23.3
2019-Mar-21 20:39 131 3 gusting 10 23.3
2019-Mar-21 20:34 123 3 gusting 9 23.3
2019-Mar-21 20:29 135 3 gusting 9 23.3
2019-Mar-21 20:24 117 2 gusting 9 23.3
2019-Mar-21 20:19 132 3 gusting 9 23.3
2019-Mar-21 20:14 138 2 gusting 10 23.3
2019-Mar-21 20:09 133 3 gusting 10 23.9
2019-Mar-21 20:04 127 1 gusting 10 23.3
2019-Mar-21 19:59 123 4 gusting 10 22.8
2019-Mar-21 19:54 139 3 gusting 9 22.8
2019-Mar-21 19:49 136 4 gusting 9 23.3
2019-Mar-21 19:44 118 2 gusting 11 23.9
2019-Mar-21 19:39 125 4 gusting 11 23.3
2019-Mar-21 19:34 139 3 gusting 9 23.3
2019-Mar-21 19:29 139 5 gusting 9 23.3
2019-Mar-21 19:24 139 2 gusting 13 23.9
2019-Mar-21 19:19 149 5 gusting 13 23.3
2019-Mar-21 19:14 128 4 gusting 10 23.3
2019-Mar-21 19:09 142 6 gusting 10 23.3
2019-Mar-21 19:04 135 4 gusting 9 23.3
2019-Mar-21 18:59 133 4 gusting 9 23.9
2019-Mar-21 18:54 106 2 gusting 8 23.9
2019-Mar-21 18:49 097 3 gusting 10 23.3
2019-Mar-21 18:44 144 3 gusting 10 23.3
2019-Mar-21 18:39 115 3 gusting 10 23.9
2019-Mar-21 18:34 135 4 gusting 10 23.9
2019-Mar-21 18:29 124 1 gusting 9 23.9
2019-Mar-21 18:24 135 4 gusting 9 23.9
2019-Mar-21 18:19 127 2 gusting 8 23.9
2019-Mar-21 18:14 116 5 gusting 8 23.3
2019-Mar-21 18:09 135 3 gusting 9 23.3
2019-Mar-21 18:04 133 5 gusting 10 23.3
2019-Mar-21 17:59 142 2 gusting 10 23.3
2019-Mar-21 17:54 142 3 gusting 8 23.3
2019-Mar-21 17:49 116 3 gusting 8 23.9
2019-Mar-21 17:44 128 3 gusting 7 23.9
2019-Mar-21 17:39 118 1 gusting 6 23.3
2019-Mar-21 17:34 106 3 gusting 6 23.3
2019-Mar-21 17:29 135 1 gusting 6 22.8
2019-Mar-21 17:24 134 2 gusting 8 22.8
2019-Mar-21 17:19 149 2 gusting 8 22.8
2019-Mar-21 17:14 134 5 gusting 8 22.8
2019-Mar-21 17:09 150 3 gusting 7 22.8
2019-Mar-21 17:04 184 3 gusting 7 22.8
2019-Mar-21 16:59 131 3 gusting 7 22.8
2019-Mar-21 16:54 142 3 gusting 7 22.8
2019-Mar-21 16:49 153 2 gusting 7 23.3
2019-Mar-21 16:44 131 3 gusting 7 23.3
2019-Mar-21 16:39 118 4 gusting 7 23.3
2019-Mar-21 16:34 131 2 gusting 6 23.3
2019-Mar-21 16:29 144 2 gusting 7 23.3
2019-Mar-21 16:24 139 4 gusting 7 23.3
2019-Mar-21 16:19 144 2 gusting 7 23.3
2019-Mar-21 16:14 133 4 gusting 6 22.8
2019-Mar-21 16:09 101 0 gusting 6 23.3
2019-Mar-21 16:04 167 2 gusting 6 23.3
2019-Mar-21 15:59 150 2 gusting 6 22.8
2019-Mar-21 15:54 151 1 gusting 6 22.8
2019-Mar-21 15:49 106 2 gusting 5 23.3
2019-Mar-21 15:44 130 0 gusting 8 22.8
2019-Mar-21 15:39 144 1 gusting 8 22.2
2019-Mar-21 15:34 160 4 gusting 8 22.2
2019-Mar-21 15:29 117 0 gusting 6 22.2
2019-Mar-21 15:24 149 2 gusting 6 22.2
2019-Mar-21 15:19 151 2 gusting 6 21.7
2019-Mar-21 15:14 144 1 gusting 6 22.2
2019-Mar-21 15:09 191 0 gusting 6 21.7
2019-Mar-21 15:04 157 1 gusting 7 21.7
2019-Mar-21 14:59 148 3 gusting 7 21.7
2019-Mar-21 14:54 141 1 gusting 6 21.1
2019-Mar-21 14:49 153 3 gusting 6 21.1
2019-Mar-21 14:44 164 1 gusting 7 21.7
2019-Mar-21 14:39 142 2 gusting 7 21.1
2019-Mar-21 14:34 136 2 gusting 6 21.1
2019-Mar-21 14:29 161 2 gusting 7 21.1
2019-Mar-21 14:24 147 2 gusting 7 21.1
2019-Mar-21 14:19 149 2 gusting 6 20.6
2019-Mar-21 14:14 131 0 gusting 6 21.1
2019-Mar-21 14:09 163 3 gusting 6 20.6
2019-Mar-21 14:04 165 1 gusting 6 20.6
2019-Mar-21 13:59 151 1 gusting 6 20.6
2019-Mar-21 13:54 137 0 gusting 7 20.0
2019-Mar-21 13:49 153 2 gusting 7 20.0
2019-Mar-21 13:44 151 3 gusting 6 20.0
2019-Mar-21 13:39 146 1 gusting 6 20.0
2019-Mar-21 13:34 159 1 gusting 7 20.0
2019-Mar-21 13:29 154 3 gusting 7 20.0
2019-Mar-21 13:24 155 2 gusting 6 19.4
2019-Mar-21 13:19 163 2 gusting 6 19.4
2019-Mar-21 13:14 137 0 gusting 6 19.4
2019-Mar-21 13:09 142 1 gusting 6 18.9
2019-Mar-21 13:04 164 1 gusting 5 18.9
2019-Mar-21 12:59 147 0 gusting 5 18.9
2019-Mar-21 12:54 158 0 gusting 4 18.9
2019-Mar-21 12:49 168 0 gusting 5 18.3
2019-Mar-21 12:44 152 1 gusting 5 18.3
2019-Mar-21 12:39 162 1 gusting 6 18.3
2019-Mar-21 12:34 154 2 gusting 6 18.3
2019-Mar-21 12:29 152 3 gusting 6 18.3
2019-Mar-21 12:24 150 1 gusting 5 18.3
2019-Mar-21 12:19 156 0 gusting 6 18.3
2019-Mar-21 12:14 148 1 gusting 6 18.3
2019-Mar-21 12:09 148 2 gusting 6 18.3
2019-Mar-21 12:04 156 1 gusting 6 18.3
2019-Mar-21 11:59 162 1 gusting 6 18.3
2019-Mar-21 11:54 159 2 gusting 6 18.3
2019-Mar-21 11:49 159 0 gusting 4 18.3
2019-Mar-21 11:44 154 1 gusting 4 18.3
2019-Mar-21 11:39 154 18.3
2019-Mar-21 11:34 155 1 gusting 5 18.3
2019-Mar-21 11:29 147 1 gusting 5 18.3
2019-Mar-21 11:24 119 18.3
2019-Mar-21 11:19 169 18.3
2019-Mar-21 11:14 170 0 gusting 4 18.3
2019-Mar-21 11:09 168 0 gusting 3 18.3
2019-Mar-21 11:04 148 1 gusting 3 18.3
2019-Mar-21 10:59 167 0 gusting 5 18.3
2019-Mar-21 10:54 184 18.3
2019-Mar-21 10:49 142 18.3
2019-Mar-21 10:44 105 18.3
2019-Mar-21 10:39 146 0 gusting 3 18.3
2019-Mar-21 10:34 140 18.3
2019-Mar-21 10:29 154 18.3
2019-Mar-21 10:24 144 0 gusting 4 18.3
2019-Mar-21 10:19 099 18.3
2019-Mar-21 10:14 154 0 gusting 4 18.3
2019-Mar-21 10:09 162 0 gusting 4 18.3
2019-Mar-21 10:04 146 0 gusting 4 18.3
2019-Mar-21 09:59 166 18.3
2019-Mar-21 09:54 140 0 gusting 4 18.3
2019-Mar-21 09:49 145 0 gusting 6 18.3
2019-Mar-21 09:44 152 1 gusting 6 18.3
2019-Mar-21 09:39 137 0 gusting 5 18.3
2019-Mar-21 09:34 134 18.3
2019-Mar-21 09:29 150 0 gusting 4 18.3
2019-Mar-21 09:24 139 0 gusting 4 18.3
2019-Mar-21 09:19 157 1 gusting 6 18.3
2019-Mar-21 09:14 152 0 gusting 6 18.9
2019-Mar-21 09:09 150 2 gusting 6 18.9
2019-Mar-21 09:04 149 1 gusting 6 18.9
2019-Mar-21 08:59 147 0 gusting 6 18.9
2019-Mar-21 08:54 146 2 gusting 6 18.9
2019-Mar-21 08:49 148 1 gusting 6 18.9
2019-Mar-21 08:44 144 0 gusting 4 18.9
2019-Mar-21 08:39 124 0 gusting 5 18.9
2019-Mar-21 08:34 142 1 gusting 5 18.9
2019-Mar-21 08:29 135 0 gusting 4 18.9
2019-Mar-21 08:24 107 18.9
2019-Mar-21 08:19 146 0 gusting 4 18.9
2019-Mar-21 08:14 140 0 gusting 4 18.9
2019-Mar-21 08:09 136 18.9
2019-Mar-21 08:04 129 18.9
2019-Mar-21 07:59 133 18.9
2019-Mar-21 07:54 133 18.9
2019-Mar-21 07:49 133 19.4
2019-Mar-21 07:44 111 19.4
2019-Mar-21 07:39 177 19.4
2019-Mar-21 07:34 182 19.4
2019-Mar-21 07:29 151 19.4
2019-Mar-21 07:24 151 19.4
2019-Mar-21 07:19 120 19.4
2019-Mar-21 07:14 168 19.4
2019-Mar-21 07:09 154 19.4
2019-Mar-21 07:04 111 19.4
2019-Mar-21 06:59 189 19.4
2019-Mar-21 06:54 108 19.4
2019-Mar-21 06:49 108 19.4
2019-Mar-21 06:44 184 19.4
2019-Mar-21 06:39 097 19.4
2019-Mar-21 06:34 125 19.4
2019-Mar-21 06:29 147 19.4
2019-Mar-21 06:24 161 19.4
2019-Mar-21 06:19 130 19.4
2019-Mar-21 06:14 130 19.4
2019-Mar-21 06:09 130 19.4
2019-Mar-21 06:04 130 19.4
2019-Mar-21 05:59 130 19.4
2019-Mar-21 05:54 130 19.4
2019-Mar-21 05:49 130 19.4
2019-Mar-21 05:44 130 19.4
2019-Mar-21 05:39 130 19.4
2019-Mar-21 05:34 130 19.4
2019-Mar-21 05:29 130 19.4
2019-Mar-21 05:24 130 19.4
2019-Mar-21 05:19 130 19.4
2019-Mar-21 05:14 130 19.4
2019-Mar-21 05:09 130 19.4
2019-Mar-21 05:04 130 19.4
2019-Mar-21 04:59 130 20.0
2019-Mar-21 04:54 142 20.0
2019-Mar-21 04:49 142 20.0
2019-Mar-21 04:44 142 20.0
2019-Mar-21 04:39 136 20.0
2019-Mar-21 04:34 101 20.0
2019-Mar-21 04:29 101 20.0
2019-Mar-21 04:24 101 20.0
2019-Mar-21 04:19 101 20.0
2019-Mar-21 04:14 198 20.0
2019-Mar-21 04:09 180 0 gusting 3 20.0
2019-Mar-21 04:04 156 20.0
2019-Mar-21 03:59 173 20.0
2019-Mar-21 03:54 183 20.0
2019-Mar-21 03:49 163 0 gusting 2 20.0
2019-Mar-21 03:44 169 20.0
2019-Mar-21 03:39 130 20.0
2019-Mar-21 03:34 169 20.6
2019-Mar-21 03:29 204 0 gusting 3 20.6
2019-Mar-21 03:24 183 20.6
2019-Mar-21 03:19 173 0 gusting 5 20.6
2019-Mar-21 03:14 168 1 gusting 6 20.6
2019-Mar-21 03:09 203 0 gusting 6 20.6
2019-Mar-21 03:04 164 0 gusting 4 20.6
2019-Mar-21 02:59 182 0 gusting 5 20.6
2019-Mar-21 02:54 156 20.6
2019-Mar-21 02:49 168 0 gusting 3 20.6
2019-Mar-21 02:44 133 0 gusting 3 21.1
2019-Mar-21 02:39 142 21.1
2019-Mar-21 02:34 138 0 gusting 5 20.6
2019-Mar-21 02:29 120 20.6
2019-Mar-21 02:24 164 1 gusting 6 20.6
2019-Mar-21 02:19 168 1 gusting 6 20.6
2019-Mar-21 02:14 138 0 gusting 5 21.1
2019-Mar-21 02:09 162 1 gusting 5 20.6
2019-Mar-21 02:04 133 0 gusting 6 20.6
2019-Mar-21 01:59 153 3 gusting 6 20.6
2019-Mar-21 01:54 145 0 gusting 6 21.1
2019-Mar-21 01:49 140 1 gusting 5 21.1
2019-Mar-21 01:44 177 0 gusting 6 21.1
2019-Mar-21 01:39 161 3 gusting 6 21.1
2019-Mar-21 01:34 162 4 gusting 6 21.1
2019-Mar-21 01:29 150 2 gusting 7 21.1
2019-Mar-21 01:24 159 3 gusting 7 21.1
2019-Mar-21 01:19 156 2 gusting 5 21.1
2019-Mar-21 01:14 150 1 gusting 5 21.7
2019-Mar-21 01:09 157 0 gusting 5 21.7
2019-Mar-21 01:04 152 1 gusting 5 21.7
2019-Mar-21 00:59 139 1 gusting 6 21.7
2019-Mar-21 00:54 152 3 gusting 6 21.7
2019-Mar-21 00:49 140 0 gusting 6 22.2
2019-Mar-21 00:44 131 1 gusting 5 22.2
2019-Mar-21 00:39 139 0 gusting 4 22.8
2019-Mar-21 00:34 154 23.3
2019-Mar-21 00:29 178 23.3
2019-Mar-21 00:24 192 23.3
2019-Mar-21 00:19 232 23.3
2019-Mar-21 00:14 232 23.3
2019-Mar-21 00:09 232 23.3
2019-Mar-21 00:04 249 23.3
2019-Mar-20 23:59 230 23.3
2019-Mar-20 23:54 195 23.3
2019-Mar-20 23:49 247 23.3
2019-Mar-20 23:44 247 23.3
2019-Mar-20 23:39 247 23.3
2019-Mar-20 23:34 236 23.3
2019-Mar-20 23:29 216 0 gusting 5 23.9
2019-Mar-20 23:24 240 0 gusting 5 23.9
2019-Mar-20 23:19 233 0 gusting 3 23.9
2019-Mar-20 23:14 238 1 gusting 3 23.9
2019-Mar-20 23:09 199 23.9
2019-Mar-20 23:04 153 23.9
2019-Mar-20 22:59 153 23.9
2019-Mar-20 22:54 172 0 gusting 4 23.9
2019-Mar-20 22:49 162 0 gusting 3 23.9
2019-Mar-20 22:44 172 24.4
2019-Mar-20 22:39 227 24.4
2019-Mar-20 22:34 178 23.9
2019-Mar-20 22:29 186 0 gusting 3 24.4
2019-Mar-20 22:24 270 24.4
2019-Mar-20 22:19 132 24.4
2019-Mar-20 22:14 176 1 gusting 5 23.9
2019-Mar-20 22:09 188 0 gusting 3 24.4
2019-Mar-20 22:04 176 24.4
2019-Mar-20 21:59 148 0 gusting 6 24.4
2019-Mar-20 21:54 157 2 gusting 6 24.4
2019-Mar-20 21:49 183 0 gusting 6 24.4
2019-Mar-20 21:44 150 1 gusting 6 24.4
2019-Mar-20 21:39 159 3 gusting 6 24.4
2019-Mar-20 21:34 176 1 gusting 5 23.9
2019-Mar-20 21:29 190 23.9
2019-Mar-20 21:24 150 1 gusting 6 23.9
2019-Mar-20 21:19 164 2 gusting 5 23.9
2019-Mar-20 21:14 211 0 gusting 5 23.9
2019-Mar-20 21:09 138 23.9
2019-Mar-20 21:04 153 0 gusting 5 24.4
2019-Mar-20 20:59 209 1 gusting 4 23.9
2019-Mar-20 20:54 201 24.4
2019-Mar-20 20:49 176 0 gusting 3 24.4
2019-Mar-20 20:44 169 0 gusting 6 24.4
2019-Mar-20 20:39 149 1 gusting 6 23.9
2019-Mar-20 20:34 145 3 gusting 6 23.9
2019-Mar-20 20:29 148 4 gusting 6 23.9
2019-Mar-20 20:24 149 2 gusting 6 23.9
2019-Mar-20 20:19 144 1 gusting 6 23.9
2019-Mar-20 20:14 183 0 gusting 6 23.9
2019-Mar-20 20:09 161 2 gusting 6 24.4
2019-Mar-20 20:04 138 1 gusting 6 23.9
2019-Mar-20 19:59 137 4 gusting 6 23.9
2019-Mar-20 19:54 152 2 gusting 6 24.4
2019-Mar-20 19:49 174 1 gusting 8 23.9
2019-Mar-20 19:44 147 3 gusting 9 23.9
2019-Mar-20 19:39 153 5 gusting 9 23.9
2019-Mar-20 19:34 162 2 gusting 8 24.4
2019-Mar-20 19:29 153 3 gusting 8 24.4
2019-Mar-20 19:24 140 3 gusting 7 24.4
2019-Mar-20 19:19 147 3 gusting 7 24.4
2019-Mar-20 19:14 149 0 gusting 6 24.4
2019-Mar-20 19:09 180 2 gusting 6 24.4
2019-Mar-20 19:04 152 1 gusting 7 24.4
2019-Mar-20 18:59 161 4 gusting 7 23.9
2019-Mar-20 18:54 159 3 gusting 7 24.4
2019-Mar-20 18:49 163 4 gusting 7 23.9
2019-Mar-20 18:44 161 4 gusting 8 23.9
2019-Mar-20 18:39 152 4 gusting 8 23.9
2019-Mar-20 18:34 144 2 gusting 7 24.4
2019-Mar-20 18:29 163 3 gusting 7 23.9
2019-Mar-20 18:24 155 3 gusting 8 24.4
2019-Mar-20 18:19 168 2 gusting 8 25.0
2019-Mar-20 18:14 195 0 gusting 8 25.0
2019-Mar-20 18:09 146 2 gusting 8 25.0
2019-Mar-20 18:04 177 2 gusting 7 25.0
2019-Mar-20 17:59 149 1 gusting 7 25.0
2019-Mar-20 17:54 230 0 gusting 7 25.0
2019-Mar-20 17:49 154 3 gusting 7 25.0
2019-Mar-20 17:44 158 2 gusting 8 25.0
2019-Mar-20 17:39 136 1 gusting 8 25.0
2019-Mar-20 17:34 182 1 gusting 5 25.0
2019-Mar-20 17:29 205 1 gusting 5 25.0
2019-Mar-20 17:24 231 0 gusting 8 24.4
2019-Mar-20 17:19 158 2 gusting 8 23.9
2019-Mar-20 17:14 156 1 gusting 7 24.4
2019-Mar-20 17:09 192 1 gusting 7 24.4
2019-Mar-20 17:04 244 3 gusting 7 25.0
2019-Mar-20 16:59 242 0 gusting 6 25.0
2019-Mar-20 16:54 234 1 gusting 7 24.4
2019-Mar-20 16:49 241 3 gusting 7 25.0
2019-Mar-20 16:44 222 1 gusting 9 24.4
2019-Mar-20 16:39 240 3 gusting 9 25.0
2019-Mar-20 16:34 240 2 gusting 6 25.0
2019-Mar-20 16:29 239 2 gusting 6 25.0
2019-Mar-20 16:24 246 2 gusting 7 24.4
2019-Mar-20 16:19 231 0 gusting 7 24.4
2019-Mar-20 16:14 230 3 gusting 7 24.4
2019-Mar-20 16:09 232 1 gusting 7 23.9
2019-Mar-20 16:04 188 0 gusting 6 23.9
2019-Mar-20 15:59 217 2 gusting 6 23.9
2019-Mar-20 15:54 234 1 gusting 7 23.3
2019-Mar-20 15:49 218 2 gusting 7 23.3
2019-Mar-20 15:44 231 3 gusting 6 22.8
2019-Mar-20 15:39 225 2 gusting 6 22.8
2019-Mar-20 15:34 198 1 gusting 6 22.8
2019-Mar-20 15:29 232 1 gusting 7 22.8
2019-Mar-20 15:24 241 3 gusting 7 22.2
2019-Mar-20 15:19 215 2 gusting 6 21.7
2019-Mar-20 15:14 231 2 gusting 6 21.7
2019-Mar-20 15:09 225 0 gusting 5 21.1
2019-Mar-20 15:04 229 1 gusting 4 21.7
2019-Mar-20 14:59 135 21.1
2019-Mar-20 14:54 251 0 gusting 6 20.6
2019-Mar-20 14:49 224 1 gusting 7 20.6
2019-Mar-20 14:44 202 0 gusting 7 20.0
2019-Mar-20 14:39 222 2 gusting 6 20.0
2019-Mar-20 14:34 210 1 gusting 7 20.0
2019-Mar-20 14:29 231 1 gusting 7 19.4
2019-Mar-20 14:24 223 2 gusting 6 19.4
2019-Mar-20 14:19 232 0 gusting 8 19.4
2019-Mar-20 14:14 243 1 gusting 8 18.9
2019-Mar-20 14:09 244 2 gusting 8 18.9
2019-Mar-20 14:04 246 4 gusting 7 18.9
2019-Mar-20 13:59 230 1 gusting 8 18.9
2019-Mar-20 13:54 230 2 gusting 9 18.9
2019-Mar-20 13:49 230 3 gusting 9 18.9
2019-Mar-20 13:44 246 1 gusting 6 18.9
2019-Mar-20 13:39 243 2 gusting 6 18.9
2019-Mar-20 13:34 220 1 gusting 6 18.9
2019-Mar-20 13:29 225 0 gusting 10 18.9
2019-Mar-20 13:24 244 1 gusting 10 18.3
2019-Mar-20 13:19 239 3 gusting 8 17.8
2019-Mar-20 13:14 237 2 gusting 8 17.8
2019-Mar-20 13:09 227 3 gusting 8 17.8
2019-Mar-20 13:04 241 3 gusting 8 17.2
2019-Mar-20 12:59 230 2 gusting 6 17.2
2019-Mar-20 12:54 223 1 gusting 6 17.2
2019-Mar-20 12:49 201 1 gusting 6 17.2
2019-Mar-20 12:44 231 0 gusting 8 16.7
2019-Mar-20 12:39 236 2 gusting 8 16.7
2019-Mar-20 12:34 230 2 gusting 6 16.7
2019-Mar-20 12:29 234 2 gusting 6 16.7
2019-Mar-20 12:24 226 0 gusting 6 16.7
2019-Mar-20 12:19 235 1 gusting 5 16.7
2019-Mar-20 12:14 216 0 gusting 4 16.7
2019-Mar-20 12:09 235 0 gusting 7 16.7
2019-Mar-20 12:04 246 2 gusting 7 16.7
2019-Mar-20 11:59 233 1 gusting 6 16.7
2019-Mar-20 11:54 240 0 gusting 6 16.7
2019-Mar-20 11:49 231 2 gusting 6 16.7
2019-Mar-20 11:44 203 0 gusting 6 16.7
2019-Mar-20 11:39 230 2 gusting 6 16.7
2019-Mar-20 11:34 252 0 gusting 6 16.1
2019-Mar-20 11:29 224 0 gusting 6 16.1
2019-Mar-20 11:24 238 0 gusting 6 16.1
2019-Mar-20 11:19 218 2 gusting 6 16.1
2019-Mar-20 11:14 239 1 gusting 6 16.1
2019-Mar-20 11:09 214 1 gusting 7 16.1
2019-Mar-20 11:04 210 1 gusting 7 16.1
2019-Mar-20 10:59 249 0 gusting 7 16.1
2019-Mar-20 10:54 220 2 gusting 7 16.1
2019-Mar-20 10:49 230 1 gusting 5 16.1
2019-Mar-20 10:44 221 16.1
2019-Mar-20 10:39 239 1 gusting 6 16.1
2019-Mar-20 10:34 231 2 gusting 6 16.1
2019-Mar-20 10:29 230 1 gusting 6 16.1
2019-Mar-20 10:24 233 2 gusting 8 16.1
2019-Mar-20 10:19 215 0 gusting 8 16.1
2019-Mar-20 10:14 236 1 gusting 7 16.1
2019-Mar-20 10:09 214 0 gusting 7 16.1
2019-Mar-20 10:04 235 1 gusting 6 16.1
2019-Mar-20 09:59 220 1 gusting 6 16.1
2019-Mar-20 09:54 222 1 gusting 6 16.1
2019-Mar-20 09:49 197 0 gusting 5 16.1
2019-Mar-20 09:44 217 1 gusting 5 16.1
2019-Mar-20 09:39 222 0 gusting 5 16.1
2019-Mar-20 09:34 251 16.1
2019-Mar-20 09:29 238 16.1
2019-Mar-20 09:24 217 1 gusting 6 16.1
2019-Mar-20 09:19 228 0 gusting 8 16.1
2019-Mar-20 09:14 219 2 gusting 8 15.6
2019-Mar-20 09:09 220 0 gusting 7 15.6
2019-Mar-20 09:04 222 2 gusting 7 15.6
2019-Mar-20 08:59 239 0 gusting 6 15.6
2019-Mar-20 08:54 220 0 gusting 6 15.6
2019-Mar-20 08:49 214 0 gusting 6 15.6
2019-Mar-20 08:44 232 1 gusting 6 15.6
2019-Mar-20 08:39 205 1 gusting 6 15.6
2019-Mar-20 08:34 223 0 gusting 6 15.6
2019-Mar-20 08:29 203 0 gusting 6 15.6
2019-Mar-20 08:24 216 1 gusting 8 15.6
2019-Mar-20 08:19 199 1 gusting 8 15.6
2019-Mar-20 08:14 249 0 gusting 6 15.6
2019-Mar-20 08:09 202 1 gusting 5 15.6
2019-Mar-20 08:04 163 0 gusting 6 15.6
2019-Mar-20 07:59 231 1 gusting 6 15.6
2019-Mar-20 07:54 239 1 gusting 6 16.1
2019-Mar-20 07:49 196 1 gusting 6 16.1
2019-Mar-20 07:44 214 2 gusting 6 16.1
2019-Mar-20 07:39 181 16.1
2019-Mar-20 07:34 218 1 gusting 11 16.1
2019-Mar-20 07:29 227 2 gusting 7 16.1
2019-Mar-20 07:24 215 2 gusting 6 16.1
2019-Mar-20 07:19 185 0 gusting 8 16.1
2019-Mar-20 07:14 232 2 gusting 8 16.1
2019-Mar-20 07:10 208 0 gusting 4 16.1
2019-Mar-20 07:04 198 0 gusting 4 16.1
2019-Mar-20 06:59 198 0 gusting 4 16.1
2019-Mar-20 06:54 148 0 gusting 5 16.1
2019-Mar-20 06:49 200 1 gusting 6 16.7
2019-Mar-20 06:44 225 2 gusting 6 16.7
2019-Mar-20 06:39 209 0 gusting 6 16.7
2019-Mar-20 06:34 230 1 gusting 8 16.7
2019-Mar-20 06:29 219 1 gusting 8 16.7
2019-Mar-20 06:24 213 3 gusting 6 16.7
2019-Mar-20 06:19 234 0 gusting 6 16.7
2019-Mar-20 06:14 237 0 gusting 6 16.7
2019-Mar-20 06:09 209 2 gusting 6 16.7
2019-Mar-20 06:04 227 2 gusting 6 16.7